Regional Weather Roundup
Issued by NWS

Home | Current Version | Previous Version | Text Only | Print | Product List | Glossary On
Versions: 1 2 3 4 5 6 7 8 9 10 11 12 13 14 15 16 17 18 19 20 21 22 23 24 25 26 27 28 29 30 31 32 33 34 35 36 37 38 39 40 41 42 43 44 45 46 47 48 49 50
000
ASUS44 KOUN 022010
RWROK

WEATHER ROUNDUP FOR OKLAHOMA
NATIONAL WEATHER SERVICE NORMAN OK
300 PM CDT TUE SEP 02 2014

NOTE: "FAIR" INDICATES FEW OR NO CLOUDS BELOW 12,000 FEET WITH NO
      SIGNIFICANT WEATHER AND/OR OBSTRUCTIONS TO VISIBILITY.

OKZ001>007-009>012-014-015-017-022100-
NORTHWEST OKLAHOMA AND THE PANHANDLE

CITY           SKY/WX    TMP DP  RH WIND       PRES   REMARKS
GAGE           MOSUNNY   89  69  51 E10G21    29.95F HX  93
ENID/WOODRING  PTSUNNY   88  72  58 S17G25    29.94F HX  94
$$

OKZ016-021>023-033>039-044-045-022100-
SOUTHWEST OKLAHOMA

CITY           SKY/WX    TMP DP  RH WIND       PRES   REMARKS
LAWTON/REGL    SUNNY     99  65  32 SE20G28   29.90F HX 102
LAWTON/FT SILL MOSUNNY   98  67  36 S16G32    29.90F HX 103
FREDERICK      SUNNY     99  67  35 SE22G29   29.87F HX 103
CLINTON        MOSUNNY   96  65  35 S21G28    29.94F HX  98
HOBART         SUNNY     96  69  41 S20       29.92F HX 102
ALTUS AFB      SUNNY     96  70  43 SE17G29   29.91F HX 102
$$

OKZ018>020-024>031-022100-
CENTRAL OKLAHOMA

CITY           SKY/WX    TMP DP  RH WIND       PRES   REMARKS
OKLAHOMA CITY  PTSUNNY   88  70  55 SE18G31   29.95F HX  93
OKC/WILEY POST MOSUNNY   87  71  58 SE21G29   29.94F HX  93
OKC/TINKER AFB PTSUNNY   85  69  60 SE15G22   29.96F
STILLWATER     MOSUNNY   83  67  58 SE20G30   29.96F
GUTHRIE        MOSUNNY   85  70  60 SE16G24   29.94F
$$

OKZ008-013-054>072-022100-
NORTHEAST OKLAHOMA

CITY           SKY/WX    TMP DP  RH WIND       PRES   REMARKS
TULSA          CLOUDY    74  67  78 S8        29.97F
TULSA/JONES    CLOUDY    75  67  76 S6        29.97F
PONCA CITY     MOSUNNY   84  70  62 S10       29.96F
BARTLESVILLE   PTSUNNY   79  71  76 SW8       29.99F
MUSKOGEE       CLOUDY    73  68  84 SE10      29.98F
$$

OKZ032-040>043-046>053-073>077-022100-
SOUTH CENTRAL/SOUTHEAST OKLAHOMA

CITY           SKY/WX    TMP DP  RH WIND       PRES   REMARKS
ARDMORE/DWNTWN MOSUNNY   86  68  54 E17       29.95F
MCALESTER      CLOUDY    81  69  67 S10G20    29.95F
$$



USA.gov is the U.S. government's official web portal to all federal, state and local government web resources and services.